K1YMI Weather Reports


Display with metric or nautical units.
time (UTC)temp
F
wind
direction
speed
MPH
gust
MPH
rain 1hr
in
rain 24hr
in
rain mn
in
humidity
%
barometer
mb
20260504081515 19 0.0 0.0 0.00 0.00 0.00
20260504080515 19 0.0 0.0 0.00 0.00 0.00 100 1004.6
20260504050536 22 0.0 0.0 0.00 0.00 0.00 100 1005.5
20260504045536 22 0.0 0.0 0.00 0.00 0.00 100 1005.6
20260504044515 22 0.0 0.0 0.00 0.00 0.00 100 1005.8
20260504043515 22 115 0.0 1.0 0.00 0.00 0.00 100 1006.0
20260504042516 22 0.0 0.0 0.00 0.00 0.00 100 1006.0
20260504041516 22 318 2.0 2.0 0.00 0.00 0.00 99 1006.2
20260504040516 23 0.0 0.0 0.00 0.00 0.00 97 1006.0
20260504035535 23 82 1.0 3.0 0.00 0.00 0.00 92 1006.0
20260504034515 23 0.0 0.0 0.00 0.00 0.00 92 1006.4
20260504033535 23 0.0 0.0 0.00 0.00 0.00 36 1006.7
20260504032516 23 259 0.0 1.0 0.00 0.00 0.00 100 1006.5
20260504031516 23 268 2.0 4.0 0.00 0.00 0.00 100 1006.9
20260504030536 23 264 5.0 9.0 0.00 0.00 0.00 100 1007.0
20260504025515 23 268 5.0 9.0 0.00 0.00 0.00 100 1007.1
20260504024515 24 272 4.0 7.0 0.00 0.00 0.00 100 1007.0
20260504023515 24 276 3.0 6.0 0.00 0.00 0.00 100 1007.0
20260504022516 24 277 4.0 8.0 0.00 0.00 0.00 100 1006.9
20260504021515 24 274 3.0 5.0 0.00 0.00 0.00 100 1006.8
20260504020515 24 283 2.0 6.0 0.00 0.00 0.00 100 1006.7
20260504015515 24 274 3.0 10.0 0.00 0.00 0.00 100 1006.7
20260504014515 24 272 3.0 5.0 0.00 0.00 0.00 100 1006.7
20260504013515 24 266 4.0 5.0 0.00 0.00 0.00 100 1006.7
20260504012515 24 271 4.0 6.0 0.00 0.00 0.00 100 1006.7
20260504011515 25 272 5.0 9.0 0.00 0.00 0.00 100 1006.6
20260504010515 25 277 6.0 12.0 0.00 0.00 0.00 100 1006.6
20260504005515 25 276 7.0 15.0 0.00 0.00 0.00 100 1006.7
20260504004535 25 263 7.0 14.0 0.00 0.00 0.00 100 1006.8
20260504003516 25 263 5.0 7.0 0.00 0.00 0.00 100 1006.6
20260504002515 24 262 5.0 6.0 0.00 0.00 0.00 100 1006.5
20260504001515 25 259 6.0 9.0 0.00 0.00 0.00 100 1006.3
20260504000515 25 263 4.0 6.0 0.00 0.00 0.00 100 1006.2
20260503235535 25 261 6.0 9.0 0.00 0.00 0.00 100 1006.1
20260503234535 25 258 6.0 10.0 0.00 0.00 0.00 100 1006.0
20260503233515 26 263 6.0 12.0 0.00 0.00 0.00
20260503232515 26 267 8.0 15.0 0.00 0.00 0.00
20260503231515 26 250 11.0 17.0 0.00 0.00 0.00
20260503230515 26 260 9.0 17.0 0.00 0.00 0.00
20260503225535 26 258 9.0 14.0 0.00 0.00 0.00
20260503224515 26 262 7.0 13.0 0.00 0.00 0.00
20260503223555 27 250 12.0 19.0 0.00 0.00 0.00
20260503222515 27 253 8.0 13.0 0.00 0.00 0.00
20260503221515 27 262 11.0 20.0 0.00 0.00 0.00
20260503220536 28 253 12.0 22.0 0.00 0.00 0.00
20260503215515 27 252 10.0 18.0 0.00 0.00 0.00
20260503214515 28 253 10.0 19.0 0.00 0.00 0.00
20260503213556 26 249 12.0 22.0 0.00 0.00 0.00
20260503212515 26 255 11.0 18.0 0.00 0.00 0.00
20260503211515 28 251 12.0 21.0 0.00 0.00 0.00
20260503210556 28 259 13.0 20.0 0.00 0.00 0.00
20260503205515 28 261 10.0 21.0 0.00 0.00 0.00
20260503204535 27 258 10.0 18.0 0.00 0.00 0.00
20260503203515 28 257 10.0 21.0 0.00 0.00 0.00
20260503202515 28 256 11.0 23.0 0.00 0.00 0.00
20260503201536 29 250 10.0 19.0 0.00 0.00 0.00
20260503200515 28 264 8.0 18.0 0.00 0.00 0.00
20260503195515 28 258 10.0 20.0 0.00 0.00 0.00
20260503194536 28 247 12.0 22.0 0.00 0.00 0.00
20260503193515 28 256 11.0 20.0 0.00 0.00 0.00
20260503192515 28 258 10.0 24.0 0.00 0.00 0.00
20260503191515 27 248 13.0 22.0 0.00 0.00 0.00
20260503190515 27 265 11.0 20.0 0.00 0.00 0.00
20260503185515 27 255 10.0 19.0 0.00 0.00 0.00
20260503184515 27 251 13.0 22.0 0.00 0.00 0.00
20260503183516 27 253 10.0 17.0 0.00 0.00 0.00
20260503182535 27 246 12.0 22.0 0.00 0.00 0.00
20260503181515 26 245 11.0 23.0 0.00 0.00 0.00
20260503180515 27 250 11.0 17.0 0.00 0.00 0.00
20260503175516 26 249 13.0 20.0 0.00 0.00 0.00
20260503174515 26 254 10.0 16.0 0.00 0.00 0.00
20260503173515 26 251 10.0 17.0 0.00 0.00 0.00
20260503172536 26 257 7.0 11.0 0.00 0.00 0.00
20260503171515 25 262 8.0 15.0 0.00 0.00 0.00
20260503170515 26 270 5.0 11.0 0.00 0.00 0.00
20260503150515 24 263 7.0 11.0 0.00 0.00 0.00 100 1008.0
20260503130536 22 254 9.0 17.0 0.00 0.00 0.00
20260503110515 20 271 5.0 8.0 0.00 0.00 0.00